アトラス彗星

C/2020 F2 ( ATLAS )

English version
Home page
Updated on July 24, 2022

---------------------------------------------------------------------

・ プロフィール

発見日 2020年3月21日、22日
発見光度 19.3等、19.3等
発見者 Asteroid Terrestrial-Impact Last Alert System (ATLAS) search program, Pan-STARRS 1 telescope (Haleakala)

・ 写真集

・ 軌道要素

Epoch 2022 Jan. 21.0 TT = JDT 2459600.5
T 2022 July 15.99947 TT                                 Rudenko
q   8.8170815            (2000.0)            P               Q
z  -0.0005199      Peri.   48.36285     -0.89914178     -0.34752152
 +/-0.0000020      Node   250.26481     -0.43570174     +0.76817266
e   1.0045838      Incl.  163.58261     +0.04132851     +0.53771699
From 757 observations 2019 May 27-2022 Jan. 31, mean residual 0".4.

・ 星図

・ 光度変化

        m1 = -6.5 + 5 logΔ + 20.0 log r

---------------------------------------------------------------------

軌道要素はM.P.E.C. 2022-C56に掲載されたものです。
星図はステラナビゲータ Ver.10 (アストロアーツ) で作成したものです。
光度グラフはComet for Windowsで作成したものです。

---------------------------------------------------------------------

Copyright(C) Seiichi Yoshida (comet@aerith.net). All rights reserved.